Rockford, IL

8:36 PM CDT on September 25, 2016 (GMT -0500)
Greater Rockford

Weather History for KRFD - April, 2014

Change the Weather History Date:

Thursday, April 17, 2014

  Actual Average Record
Temperature  
Mean Temperature 49 °F 50 °F  
Max Temperature 58 °F 61 °F 86 °F (1977)
Min Temperature 40 °F 39 °F 24 °F (1983)
Degree Days  
Heating Degree Days 16 15  
Month to date heating degree days 323 310  
Since 1 July heating degree days 7307 6174  
Cooling Degree Days 0 0  
Month to date cooling degree days 0 0  
Year to date cooling degree days 0 0  
Moisture  
Dew Point 34 °F    
Average Humidity 57    
Maximum Humidity 71    
Minimum Humidity 43    
Precipitation  
Precipitation 0.00 in 0.12 in 3.06 in (2013)
Month to date precipitation 1.71 1.89  
Year to date precipitation 6.48 6.99  
Snow  
Snow 0.00 in 0.10 in 0.50 in (1926)
Month to date snowfall 0.3 0.8  
Since 1 July snowfall 56.9 36.6  
Snow Depth 0.00 in    
Sea Level Pressure  
Sea Level Pressure 30.19 in    
Wind  
Wind Speed 10 mph (SW)    
Max Wind Speed 24 mph    
Max Gust Speed 31 mph    
Visibility 10 miles    
Events      
T = Trace of Precipitation, MM = Missing Value Source: NWS Daily Summary

Daily Weather History Graph

Daily Weather History Graph

Search for Another Location

Airport or City:

Trip Planner

Search our weather history database for the weather conditions in past years. The results will help you decide how hot, cold, wet, or windy it might be!

Date:

Astronomy

Apr. 17, 2014 Rise Set
Actual Time 6:12 AM CDT 7:40 PM CDT
Civil Twilight 5:43 AM CDT 8:09 PM CDT
Nautical Twilight 5:08 AM CDT 8:44 PM CDT
Astronomical Twilight 4:30 AM CDT 9:22 PM CDT
Moon 10:28 PM CDT (4/17) 7:42 AM CDT (4/17)
Length of Visible Light 14h 26m
Length of Day
13h 27m
Waning Gibbous, 93% of the Moon is Illuminated
Apr 17
Waning Gibbous
Apr 22
Last Quarter
Apr 29
New
May 6
First Quarter
May 14
Full

Hourly Weather History & Observations

Time (CDT) Temp. Windchill Dew Point Humidity Pressure Visibility Wind Dir Wind Speed Gust Speed Precip Events Conditions
12:54 AM 43.0 °F 34.8 °F 28.0 °F 56% 30.12 in 10.0 mi SSE 18.4 mph 24.2 mph N/A   Overcast
1:54 AM 42.1 °F 33.1 °F 28.0 °F 58% 30.10 in 10.0 mi SSE 20.7 mph 27.6 mph N/A   Overcast
2:54 AM 42.1 °F 33.9 °F 27.0 °F 55% 30.09 in 10.0 mi SSE 17.3 mph 25.3 mph N/A   Overcast
3:54 AM 42.1 °F 35.2 °F 28.0 °F 58% 30.08 in 10.0 mi SSE 12.7 mph - N/A   Overcast
4:54 AM 41.0 °F 32.5 °F 28.9 °F 62% 30.07 in 10.0 mi South 17.3 mph 24.2 mph N/A   Overcast
5:54 AM 39.9 °F 32.5 °F 28.9 °F 65% 30.09 in 10.0 mi South 12.7 mph - N/A   Overcast
6:54 AM 41.0 °F 32.8 °F 30.0 °F 65% 30.11 in 10.0 mi South 16.1 mph - N/A   Overcast
7:43 AM 43.0 °F 36.0 °F 30.9 °F 62% 30.12 in 10.0 mi SSW 13.8 mph - N/A   Overcast
7:54 AM 44.1 °F 37.4 °F 30.9 °F 60% 30.14 in 10.0 mi SSW 13.8 mph - N/A   Overcast
8:54 AM 46.9 °F - 36.0 °F 66% 30.16 in 10.0 mi WSW 10.4 mph - N/A   Overcast
9:01 AM 46.9 °F - 36.0 °F 66% 30.14 in 10.0 mi WSW 13.8 mph 20.7 mph N/A   Overcast
9:31 AM 46.0 °F 40.2 °F 36.0 °F 68% 30.15 in 10.0 mi WSW 12.7 mph - N/A   Overcast
9:54 AM 46.9 °F - 37.0 °F 68% 30.18 in 10.0 mi SW 11.5 mph - N/A   Overcast
10:54 AM 46.4 °F 41.9 °F 35.6 °F 66% 30.20 in 10.0 mi WSW 9.2 mph 19.6 mph N/A   Overcast
11:54 AM 50.0 °F - 36.0 °F 59% 30.23 in 10.0 mi WNW 8.1 mph 19.6 mph N/A   Overcast
12:54 PM 51.1 °F - 36.0 °F 56% 30.24 in 10.0 mi West 9.2 mph - N/A   Overcast
1:40 PM 52.0 °F - 37.0 °F 57% 30.22 in 10.0 mi West 8.1 mph - N/A   Mostly Cloudy
1:54 PM 54.0 °F - 37.0 °F 53% 30.24 in 10.0 mi SW 11.5 mph - N/A   Mostly Cloudy
2:54 PM 57.0 °F - 37.9 °F 49% 30.24 in 10.0 mi West 9.2 mph - N/A   Overcast
3:54 PM 57.0 °F - 37.0 °F 47% 30.23 in 10.0 mi WSW 8.1 mph - N/A   Overcast
4:54 PM 57.0 °F - 36.0 °F 45% 30.23 in 10.0 mi WNW 9.2 mph - N/A   Overcast
5:54 PM 55.9 °F - 36.0 °F 47% 30.24 in 10.0 mi West 6.9 mph - N/A   Overcast
6:54 PM 55.0 °F - 37.0 °F 51% 30.25 in 10.0 mi WSW 5.8 mph - N/A   Overcast
7:54 PM 51.1 °F - 36.0 °F 56% 30.26 in 10.0 mi SSW 4.6 mph - N/A   Overcast
8:54 PM 50.0 °F - 37.0 °F 61% 30.27 in 10.0 mi SSW 3.5 mph - N/A   Overcast
9:54 PM 48.9 °F - 37.0 °F 64% 30.28 in 10.0 mi Calm Calm - N/A   Overcast
10:54 PM 46.9 °F - 36.0 °F 66% 30.28 in 10.0 mi NW 4.6 mph - N/A   Overcast
11:54 PM 45.0 °F 40.1 °F 36.0 °F 71% 30.29 in 10.0 mi NNW 9.2 mph - N/A   Overcast